Regional Weather Roundup
Issued by NWS Cleveland, OH

Home | Current Version | Previous Version | Graphics & Text | Print | Product List | Glossary On
Versions: 1 2 3 4 5 6 7 8 9 10 11 12 13 14 15 16 17 18 19 20 21 22 23 24 25 26 27 28 29 30 31 32 33 34 35 36 37 38 39 40 41 42 43 44 45 46 47 48 49 50
000
ASUS41 KCLE 262112
RWRCLE
OHIO REGIONAL WEATHER ROUNDUP
NATIONAL WEATHER SERVICE WILMINGTON, OH
500 PM EDT MON SEP 26 2016

NOTE: "FAIR" INDICATES FEW OR NO CLOUDS BELOW 12,000 FEET WITH NO
SIGNIFICANT WEATHER AND/OR OBSTRUCTIONS TO VISIBILITY.

OHZ001>008-015>018-024>027-034-035-043-044-262200-
   NORTHWEST OHIO

CITY           SKY/WX    TMP DP  RH WIND       PRES   REMARKS
DEFIANCE       FAIR      70  41  34 W10G18    29.93F
FINDLAY        FAIR      69  41  36 W17G25    29.94F
TOLEDO EXPRESS FAIR      69  45  41 SW16      29.91F
TOLEDO EXEC    FAIR      69  45  41 W16       29.92F
LIMA           FAIR      68  45  43 W20       29.97S
$$

OHZ009>014-019>023-028>033-038-089-262200-
   NORTHEAST OHIO

CITY           SKY/WX    TMP DP  RH WIND       PRES   REMARKS
CLE-HOPKINS    PTSUNNY   68  55  63 W12       29.94F
CLE-LAKEFRONT  FAIR      67  58  72 SW14G23   29.90F
CUY CO. ARPT   CLOUDY    64  61  88 W14       29.92F
LORAIN-ELYRIA  FAIR      65  51  60 W10       29.93F
ASHTABULA      PTSUNNY   63  61  93 SW7       29.92F
AKRON-CANTON   LGT RAIN  61  58  90 W13G21    29.94S
WOOSTER        LGT RAIN  63  57  81 W10       29.95S
MANSFIELD      FAIR      66  52  60 W8G17     29.95F
YOUNGSTOWN     CLOUDY    62  58  86 SW7       29.93F
$$

OHZ042-051>053-060>062-070>072-077>081-262200-
  SOUTHWEST OHIO

CITY           SKY/WX    TMP DP  RH WIND       PRES   REMARKS
CINC-COVINGTON PTSUNNY   66  51  58 W9        30.03S
CINC-LUNKEN    FAIR      68  53  58 W9        30.03S
HAMILTON       FAIR      67  50  54 W8        30.03S
DAYTON         PTSUNNY   68  47  46 W13       30.01F
WRIGHT-PAT AFB MOSUNNY   66  49  52 W9        30.00S
DAYTON GENERAL FAIR      66  45  46 W12       30.01S
WILMINGTON     FAIR      66  50  56 W12G20    30.01S
$$

OHZ036-037-039>041-045>050-054>059-063>069-073>076-082>088-262200-
  CENTRAL AND SOUTHEAST OHIO

CITY           SKY/WX    TMP DP  RH WIND       PRES   REMARKS
COLUMBUS       PTSUNNY   67  57  70 NW10      29.97F
OSU AIRPORT    FAIR      67  51  56 W12       29.97F
BOLTON FIELD   MOSUNNY   66  54  63 W8        29.99F
RICKENBACK AFB FAIR      64  56  73 W8        29.98F
NEWARK         FAIR      65  56  72 W9        29.97S
MARION         FAIR      66  46  48 W12       29.97S
LANCASTER      FAIR      65  56  72 W8        29.98F
ZANESVILLE     PTSUNNY   63  57  81 W8        29.97R
NEW PHILLY     LGT RAIN  64  60  87 SW6       29.95F
$$




USA.gov is the U.S. government's official web portal to all federal, state and local government web resources and services.